Weather History for Little Rock AFB, AR

Change the Weather History Date:

Sunday, February 24, 2013

  Actual Average Record
Temperature  
Mean Temperature 42 °F -  
Max Temperature 56 °F 59 °F 48 °F (2014)
Min Temperature 27 °F 36 °F 30 °F (2014)
Degree Days  
Heating Degree Days 24    
Moisture  
Dew Point 32 °F    
Average Humidity 69    
Maximum Humidity 94    
Minimum Humidity 42    
Precipitation  
Precipitation 0.00 in - - ()
Sea Level Pressure  
Sea Level Pressure 30.01 in    
Wind  
Wind Speed 4 mph (ENE)    
Max Wind Speed 13 mph    
Max Gust Speed -    
Visibility 10 miles    
Events      
Averages and records for this station are not official NWS values.
T = Trace of Precipitation, MM = Missing Value Source: NWS Daily Summary

Daily Weather History Graph

Daily Weather History Graph

Search for Another Location

Airport:

Trip Planner

Search our weather history database for the weather conditions in past years. The results will help you decide how hot, cold, wet, or windy it might be!

Date:

Astronomy

Feb. 24, 2013 Rise Set
Actual Time 6:43 AM CST 6:00 PM CST
Civil Twilight 6:18 AM CST 6:25 PM CST
Nautical Twilight 5:48 AM CST 6:55 PM CST
Astronomical Twilight 5:19 AM CST 7:24 PM CST
Moon 5:11 PM CST (2/24) 5:40 AM CST (2/24)
Length of Visible Light 12h 07m
Length of Day
11h 16m
Waxing Gibbous, 99% of the Moon is Illuminated
Feb 24
Waxing Gibbous
Feb 25
Full
Mar 4
Last Quarter
Mar 11
New
Mar 19
First Quarter

Hourly Weather History & Observations

Time (CST) Temp. Windchill Dew Point Humidity Pressure Visibility Wind Dir Wind Speed Gust Speed Precip Events Conditions
12:58 AM 30.7 °F - 28.8 °F 92% 30.06 in 10.0 mi Calm Calm - N/A   Clear
1:58 AM 29.7 °F - 28.0 °F 94% 30.05 in 10.0 mi Calm Calm - N/A   Clear
2:58 AM 29.7 °F - 28.2 °F 94% 30.04 in 10.0 mi Calm Calm - N/A   Clear
3:58 AM 28.9 °F - 27.0 °F 92% 30.04 in 10.0 mi Calm Calm - N/A   Clear
4:58 AM 27.7 °F - 25.3 °F 91% 30.06 in 10.0 mi Calm Calm - N/A   Clear
5:58 AM 27.3 °F - 25.5 °F 93% 30.07 in 10.0 mi East 2.3 mph - N/A   Clear
6:58 AM 27.5 °F - 25.7 °F 93% 30.07 in 10.0 mi Calm Calm - N/A   Clear
7:58 AM 33.4 °F 28.1 °F 30.9 °F 90% 30.09 in 10.0 mi ENE 5.8 mph - N/A   Clear
8:58 AM 40.8 °F 35.6 °F 31.8 °F 70% 30.10 in 10.0 mi East 8.1 mph - N/A   Clear
9:58 AM 45.7 °F 40.6 °F 31.1 °F 57% 30.10 in 10.0 mi East 10.4 mph - N/A   Clear
10:58 AM 48.0 °F - 31.8 °F 54% 30.10 in 10.0 mi ESE 6.9 mph - N/A   Clear
11:58 AM 51.3 °F - 34.5 °F 53% 30.09 in 10.0 mi East 5.8 mph - N/A   Clear
12:58 PM 53.4 °F - 33.8 °F 47% 30.04 in 10.0 mi East 5.8 mph - N/A   Clear
1:58 PM 55.4 °F - 34.7 °F 46% 30.01 in 10.0 mi ENE 8.1 mph - N/A   Clear
2:58 PM 56.5 °F - 33.8 °F 42% 29.99 in 10.0 mi ENE 8.1 mph - N/A   Clear
3:58 PM 56.3 °F - 35.1 °F 45% 29.98 in 10.0 mi East 12.7 mph - N/A   Clear
4:58 PM 55.0 °F - 35.1 °F 47% 29.96 in 10.0 mi East 12.7 mph - N/A   Clear
5:58 PM 52.0 °F - 35.4 °F 53% 29.95 in 10.0 mi ENE 8.1 mph - N/A   Clear
6:58 PM 48.6 °F - 35.4 °F 60% 29.95 in 10.0 mi ENE 9.2 mph - N/A   Clear
7:58 PM 46.4 °F 42.4 °F 35.4 °F 66% 29.94 in 10.0 mi ENE 8.1 mph - N/A   Partly Cloudy
8:58 PM 45.7 °F 41.5 °F 36.1 °F 69% 29.94 in 10.0 mi NE 8.1 mph - N/A   Scattered Clouds
9:58 PM 43.7 °F 39.7 °F 35.8 °F 74% 29.91 in 10.0 mi NE 6.9 mph - N/A   Clear
10:58 PM 44.1 °F 39.0 °F 35.6 °F 72% 29.90 in 10.0 mi ENE 9.2 mph - N/A   Partly Cloudy
11:58 PM 44.1 °F 38.6 °F 34.9 °F 70% 29.88 in 10.0 mi NE 10.4 mph - N/A   Mostly Cloudy